STARLINK-33855, 64335

Orbit data source: Space-Track

STARLINK-33855, 64335 is a payload satellite owned by SpaceX/Seattle (US) in LEO that was launched on Tue, 10 Jun 2025 UTC via an FALCON 9 launch vehicle from the Air Force Eastern Test Range (AFETR). Payload-class satellites include a variety of spacecraft equipped with specific instruments for various scientific and technological missions. These include communications satellites like Starlink; space stations such as the ISS; scientific satellites like the Hubble; Earth observation satellites from companies like Planet Labs, Umbra, and HawkEye 360; GPS; miniature CubeSats for education and research; and military/defense satellites.

Loading next visibility...
Identifier
64335, 2025-124U
Orbit
LEO
Country
Flag of USUS
Related business
Manufacturer
SpaceX/Seattle
Mission
Operational Commercial Communications
Bus & Motor
STARLINK V2MO, Unknown motor
Mass
575 kg wet, ~530 kg dry
Launch date (UTC)
2025-06-10 (9 months ago)
Launch vehicle
FALCON 9
Launch site
Air Force Eastern Test Range (AFETR)
Object type
Payload
Rocket body
Debris
Shape & HBR
Box + 2 Pan, 17.7 m
Radar Cross Section
36.964 m², Large (>1 m²)

Expand to show TLE details & history
Last TLE update: 13 hours ago

TLE from 13 hours ago
0 STARLINK-33855
1 64335U 25124U   26074.32149424  .00026764  00000-0  97775-3 0  9996
2 64335  42.9990  89.7308 0001211 262.6416  97.4298 15.27607823 42649
Epoch: 2026-03-15T07:42Z
TLE epoch observation values (Epoch: 2026-03-15T07:42:57.102Z)
Latitude
-0.00001°
Longitude
161.06286°
Altitude
482.849 km
Speed
7.626 km/s
True Right ascension
05h 58m 55s
True Declination
0° 00' 00"
Sunlit
Object was in daylight at epoch
Visualization orbit readout
Latitude
Unknown
Longitude
Unknown
Altitude
Unknown
Speed
Unknown
Apparent Right ascension
Unknown
Apparent Declination
Unknown
Sunlit
N/A
Visualization observer readout
Local Sidereal Time
01:12:43
Azimuth
Unknown
Elevation
Unknown
Doppler factor
Unknown
Orbital elements
Apogee altitude
485.742 km
Perigee altitude
484.08 km
Semi-major axis
6,863.048 km
Eccentricity
0.00012
Inclination
42.999°
RAAN
89.7308°
Arg. of periapsis
262.6416°
True anomaly
97.44356°
Mean anomaly
97.4298°
Eccentric anomaly
97.43668°
Mean motion
3.8174 °/min
Orbital period
94.31 mins
BSTAR
0.00097775
Loading maneuver chart data...
Computing Atmospheric mass density...
Loading historical data...
Loading historical data...
Loading historical data...
Loading historical data...
Loading historical data...
Loading historical data...
Loading historical data...

Documentation

Showing up to 5 results
|